Peoria, IL

12:59 PM CST on December 02, 2016 (GMT -0600)
Greater Peoria Regional

Weather History for KPIA - September, 2013

Change the Weather History Date:

Saturday, September 7, 2013

  Actual Average Record
Temperature  
Mean Temperature 77 °F 70 °F  
Max Temperature 90 °F 80 °F 101 °F (1939)
Min Temperature 64 °F 59 °F 43 °F (1956)
Degree Days  
Heating Degree Days 0 1  
Month to date heating degree days 0 6  
Since 1 July heating degree days 5 12  
Cooling Degree Days 12 6  
Month to date cooling degree days 65 45  
Year to date cooling degree days 1007 952  
Growing Degree Days 27 (Base 50)    
Moisture  
Dew Point 63 °F    
Average Humidity 63    
Maximum Humidity 87    
Minimum Humidity 39    
Precipitation  
Precipitation T in 0.11 in 1.23 in (2016)
Month to date precipitation T 0.78  
Year to date precipitation 31.83 25.73  
Snow  
Snow 0.00 in 0.00 in 0.00 in ()
Month to date snowfall 0.0 0.0  
Since 1 July snowfall 0.0 0.0  
Since 1 September snowfall 0.0 0.0  
Snow Depth 0.00 in    
Sea Level Pressure  
Sea Level Pressure 29.96 in    
Wind  
Wind Speed 7 mph (SSW)    
Max Wind Speed 21 mph    
Max Gust Speed 24 mph    
Visibility 9 miles    
Events Rain    
T = Trace of Precipitation, MM = Missing Value Source: NWS Daily Summary

Daily Weather History Graph

Daily Weather History Graph

Search for Another Location

Airport or City:

Trip Planner

Search our weather history database for the weather conditions in past years. The results will help you decide how hot, cold, wet, or windy it might be!

Date:

Astronomy

Sep. 07, 2013 Rise Set
Actual Time 6:31 AM CDT 7:20 PM CDT
Civil Twilight 6:04 AM CDT 7:48 PM CDT
Nautical Twilight 5:31 AM CDT 8:21 PM CDT
Astronomical Twilight 4:57 AM CDT 8:55 PM CDT
Moon 8:47 AM CDT (9/7) 8:17 PM CDT (9/7)
Length of Visible Light 13h 44m
Length of Day
12h 48m
Waxing Crescent, 5% of the Moon is Illuminated
Sep 7
Waxing Crescent
Sep 12
First Quarter
Sep 19
Full
Sep 26
Last Quarter
Oct 4
New

Hourly Weather History & Observations

Time (CDT) Temp. Heat Index Dew Point Humidity Pressure Visibility Wind Dir Wind Speed Gust Speed Precip Events Conditions
12:54 AM 70.0 °F - 62.1 °F 76% 30.02 in 10.0 mi SW 3.5 mph - N/A   Clear
1:54 AM 69.1 °F - 61.0 °F 75% 30.01 in 10.0 mi SSW 3.5 mph - N/A   Clear
2:54 AM 68.0 °F - 61.0 °F 78% 30.01 in 9.0 mi Calm Calm - N/A   Clear
3:54 AM 66.0 °F - 61.0 °F 84% 30.01 in 8.0 mi SSW 3.5 mph - N/A   Clear
4:54 AM 64.9 °F - 61.0 °F 87% 30.01 in 6.0 mi SSW 4.6 mph - N/A   Clear
5:54 AM 64.9 °F - 61.0 °F 87% 30.01 in 5.0 mi SSW 4.6 mph - N/A   Clear
6:54 AM 64.0 °F - 61.0 °F 90% 30.02 in 3.0 mi South 5.8 mph - N/A   Clear
7:54 AM 66.9 °F - 63.0 °F 87% 30.03 in 4.0 mi SSW 3.5 mph - N/A   Clear
8:54 AM 73.0 °F - 62.1 °F 68% 30.02 in 10.0 mi SW 6.9 mph - N/A   Clear
9:54 AM 78.1 °F - 63.0 °F 60% 30.00 in 10.0 mi South 9.2 mph - N/A   Clear
10:54 AM 80.1 °F 81.5 °F 63.0 °F 56% 30.02 in 10.0 mi SSW 9.2 mph - N/A   Clear
11:54 AM 86.0 °F 86.8 °F 63.0 °F 46% 29.99 in 10.0 mi SSW 10.4 mph - N/A   Clear
12:54 PM 88.0 °F 87.6 °F 60.1 °F 39% 29.96 in 10.0 mi West 11.5 mph 20.7 mph N/A   Clear
1:54 PM 88.0 °F 87.1 °F 59.0 °F 37% 29.93 in 10.0 mi SW 16.1 mph - N/A   Clear
2:54 PM 86.0 °F 85.7 °F 60.1 °F 41% 29.92 in 10.0 mi SW 10.4 mph - N/A   Clear
3:54 PM 89.1 °F 90.3 °F 64.0 °F 43% 29.91 in 10.0 mi SW 10.4 mph - N/A   Clear
4:54 PM 88.0 °F 89.6 °F 64.9 °F 46% 29.91 in 10.0 mi SSW 6.9 mph - N/A   Clear
5:54 PM 87.1 °F 89.2 °F 66.0 °F 49% 29.91 in 10.0 mi SSW 6.9 mph - N/A   Clear
6:54 PM 82.9 °F 85.0 °F 66.0 °F 56% 29.91 in 10.0 mi South 5.8 mph - 0.00 in Rain Light Rain
7:54 PM 81.0 °F 82.7 °F 64.9 °F 58% 29.90 in 10.0 mi South 6.9 mph - 0.00 in   Scattered Clouds
8:54 PM 80.1 °F 81.9 °F 64.9 °F 60% 29.90 in 10.0 mi South 5.8 mph - N/A   Clear
9:54 PM 79.0 °F - 64.9 °F 62% 29.90 in 10.0 mi SSW 5.8 mph - N/A   Clear
10:54 PM 79.0 °F - 64.9 °F 62% 29.91 in 10.0 mi ESE 3.5 mph - N/A   Clear
11:54 PM 78.1 °F - 64.9 °F 64% 29.91 in 10.0 mi South 3.5 mph - N/A   Partly Cloudy